Regional Weather Roundup
Issued by NWS

Home | Current Version | Previous Version | Text Only | Print | Product List | Glossary On
Versions: 1 2 3 4 5 6 7 8 9 10 11 12 13 14 15 16 17 18 19 20 21 22 23 24 25 26 27 28 29 30 31 32 33 34 35 36 37 38 39 40 41 42 43 44 45 46 47 48 49 50
000
ASUS43 KLMK 261302
RWRKY
KENTUCKY REGIONAL WEATHER ROUNDUP
NATIONAL WEATHER SERVICE LOUISVILLE KY
900 AM EDT TUE MAY 26 2015

NOTE "FAIR" INDICATES FEW OR NO CLOUDS BELOW 12,000 FEET
WITH NO SIGNIFICANT WEATHER AND/OR OBSTRUCTIONS TO VISIBILITY.

KYZ001>023-026-027-061>063-070>075-261400-
WESTERN AND SOUTH CENTRAL KENTUCKY

CITY           SKY/WX    TMP DP  RH WIND       PRES   REMARKS
PADUCAH        CLOUDY    72  66  81 S16G23    29.94R
HENDERSON      PTSUNNY   72  64  78 SE14G22   29.97F
OWENSBORO      MOSUNNY   72  66  81 S16G23    30.03F
HOPKINSVILLE   MOSUNNY   71  65  81 S14G23    30.03F
BOWLING GREEN  MOSUNNY   72  65  78 S8        30.09F
GLASGOW        NOT AVBL
$$

KYZ024-025-028>034-038-045-046-053-261400-
NORTH CENTRAL KENTUCKY

CITY           SKY/WX    TMP DP  RH WIND       PRES   REMARKS
LOUISVILLE/SDF PTSUNNY   72  65  78 S12       30.09F
LOUISVILLE/LOU PTSUNNY   71  65  81 VRB6      30.10F
FORT KNOX      MOSUNNY   71  64  79 S12       30.08F
$$

KYZ035>037-039>044-047>052-055>060-089>105-261400-
NORTHEAST KENTUCKY

CITY           SKY/WX    TMP DP  RH WIND       PRES   REMARKS
LEXINGTON      PTSUNNY   72  66  81 S12       30.15R
COVINGTON      PTSUNNY   72  64  76 S15       30.13
FRANKFORT      CLOUDY    71  64  78 S8G18     30.13R
$$

KYZ054-064>069-076>088-106>120-261400-
SOUTHEAST KENTUCKY

CITY           SKY/WX    TMP DP  RH WIND       PRES   REMARKS
JACKSON        PTSUNNY   71  63  75 VRB3      30.21S
LONDON         MOSUNNY   73  62  68 S15       30.20R
SOMERSET       NOT AVBL
MIDDLESBORO    CLOUDY    68  66  94 CALM      30.23F
MONTICELLO     MOSUNNY   75  68  79 S13       30.19S
$$



USA.gov is the U.S. government's official web portal to all federal, state and local government web resources and services.